| time (UTC) | temp F | wind direction | speed MPH | gust MPH | rain 1hr in | rain 24hr in | rain mn in | humidity % | barometer mb |
| 20260505173054 | 75 | 158 | 9.0 | 16.0 | 0.00 | 0.00 | 0.00 | 46 | 1006.4 |
| 20260505171600 | 75 | 194 | 6.0 | 20.0 | 0.00 | 0.00 | 0.00 | 45 | 1006.3 |
| 20260505170052 | 76 | 209 | 12.0 | 23.0 | 0.00 | 0.00 | 0.00 | 46 | 1006.1 |
| 20260505164549 | 76 | 113 | 11.0 | 26.0 | 0.00 | 0.00 | 0.00 | 46 | 1006.1 |
| 20260505163048 | 75 | 171 | 10.0 | 18.0 | 0.00 | 0.00 | 0.00 | 46 | 1006.3 |
| 20260505161548 | 76 | 162 | 8.0 | 22.0 | 0.00 | 0.00 | 0.00 | 48 | 1006.6 |
| 20260505153045 | 75 | 157 | 11.0 | 19.0 | 0.00 | 0.00 | 0.00 | 46 | 1006.7 |
| 20260505151541 | 75 | 155 | 10.0 | 19.0 | 0.00 | 0.00 | 0.00 | 45 | 1006.7 |
| 20260505124508 | 63 | 157 | 4.0 | 12.0 | 0.00 | 0.00 | 0.00 | 64 | 1008.1 |
| 20260505123005 | 63 | 163 | 7.0 | 13.0 | 0.00 | 0.00 | 0.00 | 65 | 1008.1 |
| 20260505121603 | 62 | 151 | 6.0 | 14.0 | 0.00 | 0.00 | 0.00 | 66 | 1008.1 |
| 20260505120001 | 61 | 173 | 7.0 | 14.0 | 0.00 | 0.00 | 0.00 | 66 | 1008.1 |
| 20260505114601 | 60 | 163 | 3.0 | 7.0 | 0.00 | 0.00 | 0.00 | 69 | 1008.0 |
| 20260505113104 | 60 | 163 | 2.0 | 7.0 | 0.00 | 0.00 | 0.00 | 67 | 1008.3 |
| 20260505111602 | 60 | 162 | 4.0 | 8.0 | 0.00 | 0.00 | 0.00 | 67 | 1008.2 |
| 20260505110112 | 58 | 171 | 4.0 | 8.0 | 0.00 | 0.00 | 0.00 | 70 | 1008.1 |
| 20260505101601 | 57 | 171 | 2.0 | 4.0 | 0.00 | 0.00 | 0.00 | 69 | 1007.6 |
| 20260505100052 | 57 | 171 | 1.0 | 3.0 | 0.00 | 0.00 | 0.00 | 68 | 1007.6 |
| 20260505094549 | 57 | 171 | 2.0 | 5.0 | 0.00 | 0.00 | 0.00 | 66 | 1007.5 |
| 20260505093049 | 58 | 171 | 3.0 | 7.0 | 0.00 | 0.00 | 0.00 | 65 | 1007.2 |
| 20260505091553 | 58 | 172 | 3.0 | 7.0 | 0.00 | 0.00 | 0.00 | 64 | 1007.2 |
| 20260505090045 | 58 | 173 | 4.0 | 7.0 | 0.00 | 0.00 | 0.00 | 64 | 1007.0 |
| 20260505084553 | 59 | 173 | 2.0 | 8.0 | 0.00 | 0.00 | 0.00 | 63 | 1007.0 |
| 20260505083054 | 59 | 173 | 2.0 | 9.0 | 0.00 | 0.00 | 0.00 | 62 | 1007.0 |
| 20260505081539 | 60 | 167 | 5.0 | 10.0 | 0.00 | 0.00 | 0.00 | 61 | 1007.1 |
| 20260505080038 | 60 | 174 | 3.0 | 10.0 | 0.00 | 0.00 | 0.00 | 60 | 1007.1 |
| 20260505074536 | 60 | 164 | 4.0 | 10.0 | 0.00 | 0.00 | 0.00 | 60 | 1007.2 |
| 20260505073035 | 60 | 188 | 4.0 | 14.0 | 0.00 | 0.00 | 0.00 | 59 | 1007.1 |
| 20260505071533 | 61 | 180 | 3.0 | 9.0 | 0.00 | 0.00 | 0.00 | 58 | 1007.2 |
| 20260505070032 | 61 | 177 | 3.0 | 10.0 | 0.00 | 0.00 | 0.00 | 57 | 1007.4 |
| 20260505064537 | 62 | 190 | 5.0 | 10.0 | 0.00 | 0.00 | 0.00 | 55 | 1007.4 |
| 20260505063031 | 62 | 157 | 6.0 | 12.0 | 0.00 | 0.00 | 0.00 | 55 | 1007.4 |
| 20260505061529 | 62 | 172 | 6.0 | 10.0 | 0.00 | 0.00 | 0.00 | 55 | 1007.3 |
| 20260505054543 | 61 | 173 | 5.0 | 9.0 | 0.00 | 0.00 | 0.00 | 57 | 1007.6 |
| 20260505053027 | 60 | 191 | 2.0 | 5.0 | 0.00 | 0.00 | 0.00 | 58 | 1007.7 |
| 20260505051526 | 60 | 160 | 4.0 | 7.0 | 0.00 | 0.00 | 0.00 | 56 | 1007.6 |
| 20260505041518 | 61 | 171 | 5.0 | 9.0 | 0.00 | 0.00 | 0.00 | 55 | 1007.3 |
| 20260505040016 | 62 | 170 | 3.0 | 7.0 | 0.00 | 0.00 | 0.00 | 55 | 1007.5 |
| 20260505034524 | 62 | 163 | 4.0 | 6.0 | 0.00 | 0.00 | 0.00 | 54 | 1007.5 |
| 20260505033015 | 62 | 167 | 3.0 | 6.0 | 0.00 | 0.00 | 0.00 | 53 | 1007.5 |
| 20260505031513 | 62 | 167 | 3.0 | 9.0 | 0.00 | 0.00 | 0.00 | 52 | 1007.5 |
| 20260505030033 | 63 | 167 | 2.0 | 7.0 | 0.00 | 0.00 | 0.00 | 51 | 1007.5 |
| 20260505024516 | 64 | 167 | 4.0 | 8.0 | 0.00 | 0.00 | 0.00 | 50 | 1007.7 |
| 20260505023012 | 64 | 177 | 4.0 | 9.0 | 0.00 | 0.00 | 0.00 | 48 | 1007.8 |
| 20260505021511 | 64 | 163 | 5.0 | 11.0 | 0.00 | 0.00 | 0.00 | 48 | 1008.0 |
| 20260505020011 | 64 | 173 | 3.0 | 7.0 | 0.00 | 0.00 | 0.00 | 47 | 1007.9 |
| 20260505014518 | 64 | 179 | 2.0 | 6.0 | 0.00 | 0.00 | 0.00 | 48 | 1007.8 |
| 20260505013017 | 64 | 173 | 0.0 | 5.0 | 0.00 | 0.00 | 0.00 | 48 | 1007.6 |
| 20260505011508 | 65 | 190 | 1.0 | 5.0 | 0.00 | 0.00 | 0.00 | 47 | 1007.6 |
| 20260505010008 | 65 | 191 | 1.0 | 5.0 | 0.00 | 0.00 | 0.00 | 46 | 1007.5 |
| 20260505004522 | 66 | 191 | 1.0 | 7.0 | 0.00 | 0.00 | 0.00 | 44 | 1007.3 |
| 20260505003007 | 67 | 150 | 3.0 | 10.0 | 0.00 | 0.00 | 0.00 | 43 | 1007.3 |
| 20260505001506 | 68 | 160 | 4.0 | 8.0 | 0.00 | 0.00 | 0.00 | 41 | 1007.0 |
| 20260505000007 | 68 | 161 | 3.0 | 11.0 | 0.00 | 0.00 | 0.00 | 41 | 1006.9 |
| 20260504234506 | 69 | 165 | 4.0 | 8.0 | 0.00 | 0.00 | 0.00 | 40 | 1006.8 |
| 20260504233004 | 70 | 167 | 6.0 | 11.0 | 0.00 | 0.00 | 0.00 | 39 | 1006.6 |
| 20260504231503 | 70 | 148 | 5.0 | 18.0 | 0.00 | 0.00 | 0.00 | 37 | 1006.6 |
| 20260504230003 | 71 | 160 | 5.0 | 17.0 | 0.00 | 0.00 | 0.00 | 37 | 1006.5 |
| 20260504223001 | 72 | 184 | 5.0 | 11.0 | 0.00 | 0.00 | 0.00 | 36 | 1006.5 |
| 20260504221500 | 72 | 192 | 7.0 | 17.0 | 0.00 | 0.00 | 0.00 | 36 | 1006.6 |
| 20260504220100 | 72 | 148 | 9.0 | 21.0 | 0.00 | 0.00 | 0.00 | 35 | 1006.6 |
| 20260504214603 | 73 | 186 | 9.0 | 16.0 | 0.00 | 0.00 | 0.00 | 33 | 1006.4 |
| 20260504213101 | 73 | 163 | 5.0 | 15.0 | 0.00 | 0.00 | 0.00 | 34 | 1006.4 |
| 20260504211556 | 73 | 175 | 9.0 | 17.0 | 0.00 | 0.00 | 0.00 | 35 | 1006.5 |
| 20260504210052 | 73 | 160 | 5.0 | 17.0 | 0.00 | 0.00 | 0.00 | 35 | 1006.7 |
| 20260504204549 | 71 | 169 | 5.0 | 18.0 | 0.00 | 0.00 | 0.00 | 35 | 1007.0 |
| 20260504203047 | 71 | 149 | 10.0 | 19.0 | 0.00 | 0.00 | 0.00 | 36 | 1007.3 |
| 20260504201545 | 72 | 153 | 6.0 | 20.0 | 0.00 | 0.00 | 0.00 | 37 | 1007.5 |
| 20260504200045 | 71 | 259 | 8.0 | 16.0 | 0.00 | 0.00 | 0.00 | 37 | 1007.6 |
| 20260504194549 | 72 | 142 | 13.0 | 24.0 | 0.00 | 0.00 | 0.00 | 35 | 1007.9 |
| 20260504193045 | 71 | 166 | 9.0 | 21.0 | 0.00 | 0.00 | 0.00 | 36 | 1007.9 |
| 20260504191603 | 71 | 228 | 8.0 | 20.0 | 0.00 | 0.00 | 0.00 | 37 | 1008.1 |
| 20260504190038 | 71 | 186 | 8.0 | 14.0 | 0.00 | 0.00 | 0.00 | 36 | 1008.2 |
| 20260504184542 | 70 | 209 | 4.0 | 17.0 | 0.00 | 0.00 | 0.00 | 36 | 1008.4 |
| 20260504183031 | 70 | 189 | 10.0 | 21.0 | 0.00 | 0.00 | 0.00 | 38 | 1008.6 |
| 20260504181528 | 69 | 148 | 10.0 | 23.0 | 0.00 | 0.00 | 0.00 | 40 | 1008.8 |
| 20260504180032 | 70 | 171 | 6.0 | 21.0 | 0.00 | 0.00 | 0.00 | 39 | 1009.0 |
| 20260504174523 | 69 | 157 | 10.0 | 21.0 | 0.00 | 0.00 | 0.00 | 37 | 1009.1 |